[[{"header":{"parameterUnit":"m.s-1","parameterCategory":1,"la1":30.2991,"la2":30.254,"lo1":-89.0895,"lo2":-89.0444,"dy":0.0017,"dx":0.0017,"nx":28,"ny":28,"refTime":"2023-07-18T03:00:00:Z","depth":0,"parameterNumber":2,"parameterNumberName":"U-component_of_WINDS"},"data":[0,0,0,0,0,0,0,0,0,0,0,0,0,0,0,0,0,0,0,0,0,0,0,0,0,0,0,0,0,0,0,0,0,0,0,0,0,0,0,0,0,0,0,0,0,0,0,0,0,0,0,0,0,0,0,0,0,0,2.3295,2.3296,0,2.3414,2.3416,2.3417,2.3417,2.3416,2.3414,2.3413,2.3536,2.3541,2.3546,0,0,0,0,0,0,0,0,0,0,0,0,0,2.3065,2.307,2.3295,2.3296,2.3298,2.3414,2.3416,2.3418,2.3417,2.3416,2.3414,2.3412,2.3535,2.354,2.3546,0,0,0,0,0,0,0,0,0,0,0,0,0,2.3173,2.3071,2.3294,2.3312,2.3314,2.3414,2.3416,2.3418,2.3418,2.3415,2.3413,2.3411,2.3533,2.354,2.3547,2.3638,0,0,2.3569,2.3572,0,0,0,0,0,0,0,0,2.3167,2.3182,2.3308,2.3311,2.3314,2.3398,2.338,2.3492,2.3418,2.3379,2.3413,2.341,2.3492,2.3503,2.353,2.3643,2.3649,2.3569,2.3574,2.3577,2.3579,0,0,0,0,0,0,0,2.316,2.3176,2.3342,2.3309,2.3313,2.3313,2.3326,2.3402,2.3447,2.3382,2.3382,2.3396,2.3494,2.3524,2.3533,2.3651,2.3569,2.3575,2.358,2.3583,2.3842,2.3844,0,0,0,0,0,0,2.3148,2.317,2.3338,2.3346,2.3233,2.3319,2.3333,2.3374,2.3446,2.3455,2.3398,2.3396,2.3513,2.3525,2.3538,2.3647,2.3577,2.3583,2.3587,2.3839,2.3842,2.3845,0,0,0,0,0,0,2.3144,2.3164,2.3333,2.3258,2.328,2.3326,2.3371,2.3377,2.3407,2.3459,2.3467,2.342,2.3511,2.3528,2.3612,2.3651,2.3587,2.3593,2.3836,2.384,2.3844,2.3867,0,0,0,0,0,0,2.3137,2.3162,2.3197,2.3259,2.3284,2.3406,2.3373,2.3381,2.3419,2.3417,2.3482,2.349,2.3511,2.3601,2.3619,2.366,2.3599,2.3833,2.3838,2.3842,2.3863,2.3871,2.3878,0,0,0,0,0,2.3129,2.3199,2.3199,2.3219,2.3328,2.3408,2.3422,2.3445,2.3422,2.3458,2.3491,2.3488,2.3644,2.361,2.363,2.3673,2.383,2.3836,2.3842,2.3859,2.3869,2.3878,0,0,0,0,0,0,2.3142,2.3208,2.3208,2.3301,2.3349,2.3408,2.3454,2.3455,2.3511,2.3507,2.3532,2.3547,2.363,2.3661,2.3621,2.3764,2.3734,2.3745,2.3741,2.3751,2.3758,2.3749,2.3604,0,0,0,0,0,2.3155,2.3215,2.3269,2.3346,2.337,2.3407,2.3443,2.3456,2.3507,2.3527,2.3566,2.3616,2.3676,2.3715,2.3774,2.3867,2.388,2.3907,2.3914,2.392,2.3929,2.3978,2.399,2.3864,2.3864,2.3864,0,0,2.3184,2.3228,2.3264,2.3349,2.3388,2.3448,2.3425,2.349,2.3535,2.3537,2.3619,2.3649,2.3706,2.3795,2.3836,2.3823,2.3966,2.3928,2.3932,2.3937,2.3985,2.3997,2.4007,2.3868,2.3867,2.3867,0,0,2.3267,2.3307,2.3373,2.3412,2.3471,2.3495,2.3511,2.357,2.359,2.3672,2.3675,2.3728,2.3832,2.3872,2.3906,2.4002,2.4,2.402,2.406,2.4108,2.4117,2.4126,2.4159,2.417,2.4028,2.4028,2.4028,0,2.3296,2.3386,2.3408,2.3473,2.3509,2.3514,2.3581,2.3618,2.3693,2.3718,2.3702,2.3831,2.387,2.3967,2.399,2.4018,2.4036,2.4012,2.4114,2.4123,2.4132,2.4163,2.4175,2.403,2.403,2.403,2.403,0,2.3417,2.348,2.3527,2.3598,2.364,2.3706,2.3737,2.3777,2.3786,2.3812,2.3894,2.3941,2.4008,2.4032,2.4042,2.413,2.412,2.4109,2.408,2.4145,2.4175,2.4187,2.4033,2.4032,2.4032,2.4031,0,0,2.3512,2.3593,2.3609,2.364,2.3704,2.3753,2.3819,2.3883,2.3916,2.3968,2.4022,2.4109,2.4099,2.4137,2.4151,2.4194,2.4264,2.4177,2.4179,2.419,2.4361,2.4368,2.4381,2.4264,2.4266,2.4268,2.4356,0,2.36,2.3716,2.3737,2.3837,2.3894,2.3899,2.3955,2.4001,2.4026,2.4078,2.4107,2.4167,2.415,2.4172,2.4215,2.4246,2.4298,2.424,2.4314,2.4316,2.4298,2.4397,2.4405,2.4485,2.4368,2.437,2.4371,0,2.3719,2.3772,2.3878,2.3932,2.3957,2.4007,2.4067,2.4117,2.4168,2.4183,2.4225,2.4234,2.4301,2.4269,2.4361,2.4322,2.4353,2.4373,2.4377,2.4383,2.4347,2.4405,2.4512,2.4523,2.439,2.4389,2.4387,0,2.3775,2.3873,2.3948,2.3975,2.4041,2.4076,2.4105,2.4153,2.419,2.4242,2.4266,2.4326,2.4358,2.4404,2.4428,2.4403,2.4518,2.4489,2.4532,2.4531,2.4555,2.4553,2.4667,2.4578,2.4578,2.4577,2.4577,0,2.3871,2.3935,2.3974,2.402,2.4092,2.4114,2.4185,2.4213,2.4256,2.4307,2.4315,2.4363,2.4393,2.4446,2.4465,2.4537,2.4553,2.4566,2.457,2.4565,2.4563,2.4585,2.4579,2.4581,2.458,2.4579,2.4579,0,2.3945,2.3974,2.4056,2.4111,2.4126,2.4176,2.4223,2.4268,2.4292,2.4357,2.4374,2.4413,2.4475,2.4504,2.4581,2.4594,2.4675,2.4676,2.4658,2.4659,2.4699,2.4694,2.483,2.4849,2.4749,2.4749,2.475,0,2.4004,2.4053,2.4112,2.4147,2.4176,2.4232,2.4269,2.4293,2.4331,2.4391,2.4429,2.449,2.4541,2.4639,2.4674,2.4733,2.4734,2.4778,2.4743,2.4735,2.4733,2.4729,2.4733,2.4784,2.4785,2.4786,2.4786,0,2.4104,2.4115,2.4168,2.4225,2.4268,2.4315,2.436,2.4388,2.4419,2.4462,2.4524,2.4563,2.464,2.4701,2.4761,2.4791,2.4794,2.4797,2.481,2.4804,2.479,2.4796,2.4673,2.4794,2.4793,2.4792,2.4792,2.4792,2.4171,2.4214,2.4262,2.432,2.4356,2.4398,2.4442,2.4471,2.4524,2.4588,2.4599,2.4665,2.4713,2.4794,2.4825,2.4877,2.4867,2.4886,2.489,2.4894,2.4895,2.4782,2.4888,2.4888,2.4888,2.4888,2.4888,0,2.427,2.4301,2.4353,2.4416,2.4461,2.4459,2.4508,2.4546,2.4604,2.4648,2.4697,2.4768,2.4826,2.4865,2.4924,2.4958,2.496,2.4972,2.4969,2.4976,2.4902,2.4884,2.4969,2.4969,2.4969,2.4969,2.4969,2.4969,2.4327,2.4399,2.4415,2.4505,2.4535,2.4599,2.4627,2.4665,2.47,2.4778,2.4826,2.4851,2.4893,2.4955,2.5008,2.5018,2.5038,2.505,2.506,2.499,2.4981,2.4973,2.4956,2.5055,2.5055,2.5129,2.513,2.513]},{"header":{"parameterUnit":"m.s-1","parameterCategory":1,"la1":30.2991,"la2":30.254,"lo1":-89.0895,"lo2":-89.0444,"dy":0.0017,"dx":0.0017,"nx":28,"ny":28,"refTime":"2023-07-18T03:00:00:Z","depth":0,"parameterNumber":3,"parameterNumberName":"V-component_of_WINDS"},"data":[0,0,0,0,0,0,0,0,0,0,0,0,0,0,0,0,0,0,0,0,0,0,0,0,0,0,0,0,0,0,0,0,0,0,0,0,0,0,0,0,0,0,0,0,0,0,0,0,0,0,0,0,0,0,0,0,0,0,1.8906,1.8905,0,1.8882,1.8881,1.8881,1.8838,1.8838,1.8837,1.8836,1.8811,1.8811,1.8811,0,0,0,0,0,0,0,0,0,0,0,0,0,1.8913,1.8913,1.8906,1.8905,1.8905,1.8882,1.8881,1.8881,1.8839,1.8838,1.8837,1.8836,1.8811,1.8811,1.8811,0,0,0,0,0,0,0,0,0,0,0,0,0,1.8901,1.8913,1.8906,1.8881,1.8879,1.8882,1.8881,1.8881,1.8839,1.8838,1.8836,1.8835,1.8811,1.8811,1.8811,1.8836,0,0,1.8811,1.8811,0,0,0,0,0,0,0,0,1.8902,1.8901,1.8885,1.8883,1.888,1.8862,1.8875,1.8866,1.8839,1.8854,1.8836,1.8835,1.8829,1.8827,1.8825,1.8835,1.8834,1.8811,1.8812,1.8812,1.8812,0,0,0,0,0,0,0,1.8903,1.8902,1.8896,1.8885,1.8882,1.8871,1.8868,1.8873,1.8848,1.8852,1.8849,1.8847,1.8827,1.8825,1.8825,1.8833,1.8811,1.8812,1.8812,1.8812,1.886,1.8861,0,0,0,0,0,0,1.8908,1.8903,1.8897,1.8895,1.8888,1.8871,1.8868,1.8869,1.8848,1.8844,1.8848,1.8845,1.8826,1.8824,1.8824,1.885,1.8812,1.8812,1.8812,1.8859,1.886,1.8862,0,0,0,0,0,0,1.8908,1.8907,1.8898,1.8898,1.8896,1.8873,1.8874,1.8869,1.8867,1.8845,1.884,1.8851,1.8825,1.8823,1.8833,1.8849,1.8812,1.8812,1.8858,1.8859,1.8861,1.8904,0,0,0,0,0,0,1.8908,1.8908,1.8918,1.8899,1.8896,1.8908,1.8875,1.8869,1.8868,1.8864,1.8846,1.8842,1.8824,1.8833,1.8833,1.8848,1.8812,1.8856,1.8858,1.886,1.8901,1.8907,1.8913,0,0,0,0,0,1.8909,1.8931,1.8918,1.8918,1.8908,1.8909,1.8908,1.8886,1.8869,1.8878,1.8864,1.8843,1.8847,1.8834,1.8834,1.8849,1.8855,1.8858,1.886,1.8899,1.8906,1.8912,0,0,0,0,0,0,1.8952,1.8928,1.8914,1.8931,1.8922,1.8902,1.8913,1.8895,1.8891,1.8887,1.886,1.8857,1.8869,1.886,1.8847,1.8872,1.8848,1.885,1.8877,1.8884,1.8889,1.8891,1.8812,0,0,0,0,0,1.8964,1.8967,1.8946,1.8963,1.8959,1.8937,1.8937,1.8921,1.8911,1.8907,1.8893,1.8884,1.8883,1.8883,1.8881,1.89,1.8895,1.891,1.8916,1.8921,1.8923,1.8931,1.8937,1.8871,1.8871,1.8871,0,0,1.8988,1.8975,1.8979,1.8971,1.8963,1.8966,1.8934,1.894,1.8941,1.8908,1.8915,1.8905,1.8893,1.8907,1.8912,1.89,1.894,1.8924,1.8928,1.8928,1.8934,1.894,1.8946,1.8873,1.8872,1.8872,0,0,1.9033,1.9024,1.9037,1.9029,1.9016,1.9001,1.9004,1.8986,1.8978,1.8986,1.896,1.8961,1.8961,1.8953,1.8949,1.8989,1.8969,1.8989,1.9018,1.9026,1.9031,1.9036,1.9049,1.9054,1.8992,1.8992,1.8992,0,1.9064,1.9069,1.9045,1.9052,1.9049,1.9018,1.903,1.9023,1.9011,1.9009,1.8995,1.8992,1.8982,1.8993,1.9003,1.9001,1.9003,1.8991,1.9032,1.9037,1.9041,1.9053,1.9058,1.8995,1.8994,1.8994,1.8994,0,1.9107,1.911,1.9122,1.911,1.9108,1.9118,1.9095,1.9096,1.908,1.9066,1.9073,1.9059,1.9053,1.9055,1.9039,1.9063,1.9055,1.9038,1.9013,1.905,1.906,1.9065,1.8998,1.8997,1.8996,1.8996,0,0,1.9179,1.9154,1.9158,1.9152,1.9136,1.9137,1.9145,1.9139,1.9139,1.9132,1.9136,1.9136,1.9118,1.9114,1.9097,1.9104,1.9135,1.9085,1.9084,1.9094,1.9158,1.9171,1.9177,1.9122,1.9123,1.9124,1.9159,0,1.922,1.9231,1.921,1.9226,1.9228,1.9198,1.9204,1.9194,1.9181,1.918,1.9166,1.9165,1.9144,1.914,1.9146,1.913,1.9148,1.9128,1.9125,1.9125,1.9128,1.9183,1.9197,1.9231,1.9163,1.9164,1.9165,0,1.9269,1.9263,1.928,1.9261,1.9261,1.9267,1.9259,1.9259,1.9246,1.9236,1.923,1.921,1.9215,1.9192,1.9197,1.9184,1.9181,1.9173,1.9174,1.9172,1.9147,1.9182,1.9242,1.9247,1.9171,1.9171,1.917,0,1.9318,1.9315,1.9324,1.9319,1.9298,1.9303,1.9294,1.928,1.9278,1.9271,1.9268,1.9262,1.9258,1.9253,1.9232,1.9217,1.9239,1.9214,1.9229,1.923,1.9235,1.9235,1.9294,1.9235,1.9235,1.9235,1.9235,0,1.9366,1.9376,1.9345,1.9351,1.9361,1.9336,1.9347,1.9335,1.9324,1.9325,1.93,1.9302,1.9273,1.9272,1.9255,1.9261,1.926,1.9251,1.9246,1.9253,1.9254,1.925,1.9247,1.9236,1.9236,1.9236,1.9236,0,1.9422,1.9402,1.941,1.9389,1.9383,1.9392,1.9374,1.9377,1.9362,1.9365,1.9364,1.934,1.9337,1.9315,1.9307,1.9295,1.9307,1.9298,1.9311,1.9308,1.9324,1.9323,1.9383,1.9389,1.9327,1.9328,1.9328,0,1.9453,1.9461,1.944,1.944,1.9432,1.9432,1.9429,1.9404,1.9402,1.9388,1.9392,1.9387,1.9382,1.9378,1.9359,1.9353,1.9343,1.9364,1.9341,1.9347,1.9341,1.9341,1.9341,1.9369,1.937,1.937,1.9371,0,1.951,1.9499,1.9496,1.9489,1.9486,1.948,1.9471,1.9472,1.9445,1.9443,1.944,1.9436,1.9427,1.9421,1.9411,1.9401,1.9381,1.9378,1.9381,1.9387,1.9394,1.9389,1.9323,1.9377,1.9376,1.9376,1.9375,1.9375,1.9554,1.9559,1.9545,1.9542,1.9533,1.9525,1.9527,1.9512,1.9509,1.95,1.9485,1.9484,1.9469,1.9454,1.9445,1.9443,1.9431,1.9436,1.9437,1.9438,1.9441,1.9395,1.9441,1.9441,1.944,1.944,1.944,0,1.9608,1.9597,1.9595,1.9584,1.9581,1.9563,1.9552,1.9551,1.955,1.9538,1.9533,1.9528,1.9523,1.9504,1.9496,1.9497,1.9487,1.9496,1.9495,1.9492,1.9452,1.945,1.9503,1.9503,1.9503,1.9503,1.9503,1.9503,1.9636,1.9642,1.963,1.9631,1.962,1.9618,1.9614,1.9606,1.9597,1.9593,1.9588,1.9576,1.9561,1.9551,1.9545,1.9539,1.9537,1.9548,1.9539,1.9502,1.9496,1.949,1.9487,1.9548,1.9548,1.9579,1.9579,1.9579]}]]